sat.trackr.live / text

‹ back to catalog

STARLINK-32156

NORAD 60278 · 2024-132A

PAYLOAD ACTIVE UNKNOWN

§ Identity

Operator
Country
US
Launch date
2024-07-28
Launch site
AFETR
Launch vehicle
Mass (kg)
RCS (m²)

Purposes: comms

External: N2YO · Heavens-Above · Gunter

§ Orbital elements

Epoch: 2026-05-25T01:20:18.763008Z

Period
94.11 min
Inclination
53.1591°
Eccentricity
0.0000862
Mean motion
15.30197781 rev/d
Perigee alt
474.6 km
Apogee alt
475.8 km
Semi-major
6,853.4 km
B*
-1.3048e-5
RAAN
57.6267°
Arg perigee
109.9988°
Mean anomaly
250.1105°
Rev number
10,447

§ Raw data

STARLINK-321561 60278U 24132A   26145.05577272 -.00000745  00000+0 -13048-4 0  99952 60278  53.1591  57.6267 0000862 109.9988 250.1105 15.30197781104474

JSON: /api/v1/satellites/60278 · /tle

For live sub-satellite position, see the globe view (requires WebGL).

§ Visibility from observer

Set your observer location to see the next 7 days of passes ≥ 10°. The values pass through the URL so the page stays shareable.

No JS? Fill the form by hand. The geolocation button needs JavaScript.